Flag for Spain Weather past 2 weeks in Alicante, Spain

Now
79 °F

Clear.


Feels Like: 80 °F
Forecast: 69 / 97 °F
Wind: 3 mph from North

Location: Alicante / El Altet

Current Time: Jul 5, 2015 at 3:09:09 AM

Latest Report: Jul 5, 2015 at 2:30 AM


Visibility: 10 mi

Pressure: 30.09 "Hg

Humidity: 54%

Dew point: 61 °F

Location of AlicanteLocation

Historic Weather in Alicante — Graph

°F

Alicante temperature yesterday

Maximum temperature yesterday: 88 °F (at 1:00 PM)
Minimum temperature yesterday: 72 °F (at 6:00 AM)
Average temperature yesterday: 83 °F

Past Weeks' High & Low Weather Summary

 TemperatureHumidityPressure
High99 °F (Jun 28, 1:00 PM)89% (Jul 3, 3:00 AM)30.21 "Hg (Jul 3, 3:00 AM)
Low66 °F (Jun 20, 5:00 AM)10% (Jun 28, 2:00 PM)29.80 "Hg (Jun 23, 7:30 PM)
Average80 °F51%30.06 "Hg
* Reported Jun 20 2:00 AM — Jul 5 2:00 AM, Alicante, Weather by CustomWeather, © 2015

Note: Actual official high and low records may vary slightly from our data, if they occured in-between our weather recording intervals... More about our weather records

Advertising

Alicante weather history for previous 24 hours

 ConditionsComfort  
Time TempWeatherWind HumidityBarometerVisibility
2:00 AM
Sun, Jul 5
79 °FClear.3 mph54%30.09 "Hg10 mi
1:30 AM81 °FPassing clouds.3 mph54%30.09 "HgN/A
1:00 AM81 °FClear.7 mph58%30.09 "Hg10 mi
12:30 AM81 °FPassing clouds.8 mph62%30.09 "HgN/A
12:00 AM81 °FClear.9 mph62%30.09 "Hg10 mi
11:30 PM
Sat, Jul 4
82 °FClear.10 mph58%30.09 "Hg10 mi
11:00 PM82 °FClear.12 mph58%30.09 "Hg10 mi
10:30 PM81 °FClear.9 mph66%30.09 "Hg10 mi
10:00 PM81 °FPassing clouds.10 mph70%30.07 "HgN/A
9:30 PM81 °FPassing clouds.10 mph70%30.07 "HgN/A
9:00 PM82 °FPassing clouds.10 mph66%30.07 "HgN/A
8:30 PM82 °FPassing clouds.13 mph66%30.07 "HgN/A
8:00 PM84 °FSunny.13 mph58%30.07 "Hg10 mi
7:30 PM84 °FPassing clouds.14 mph55%30.07 "HgN/A
7:00 PM86 °FPassing clouds.14 mph49%30.07 "HgN/A
6:30 PM86 °FPassing clouds.16 mph49%30.07 "HgN/A
6:00 PM88 °FPassing clouds.15 mph43%30.07 "HgN/A
5:30 PM88 °FPassing clouds.16 mph46%30.09 "HgN/A
5:00 PM86 °FPassing clouds.15 mph49%30.09 "HgN/A
4:30 PM88 °FPassing clouds.17 mph46%30.09 "HgN/A
4:00 PM88 °FSunny.21 mph43%30.09 "Hg10 mi
3:30 PM88 °FPassing clouds.20 mph46%30.09 "HgN/A
3:00 PM86 °FPassing clouds.16 mph55%30.09 "HgN/A
2:30 PM86 °FPassing clouds.16 mph55%30.12 "HgN/A
2:00 PM88 °FPassing clouds.16 mph52%30.12 "HgN/A
1:30 PM86 °FPassing clouds.15 mph55%30.12 "HgN/A
1:00 PM88 °FPassing clouds.17 mph52%30.12 "HgN/A
12:30 PM86 °FPassing clouds.16 mph55%30.12 "HgN/A
12:00 PM86 °FSunny.15 mph52%30.12 "Hg10 mi
11:30 AM84 °FSunny.15 mph58%30.12 "Hg10 mi
11:00 AM84 °FPassing clouds.13 mph51%30.12 "HgN/A
10:30 AM86 °FPassing clouds.9 mph35%30.12 "HgN/A
10:00 AM86 °FPassing clouds.7 mph33%30.12 "HgN/A
9:30 AM86 °FSunny.1 mph27%30.12 "Hg10 mi
9:00 AM86 °FSunny.No wind24%30.12 "Hg10 mi
8:30 AM81 °FSunny.No wind32%30.12 "Hg10 mi
8:00 AM75 °FSunny.1 mph39%30.12 "Hg10 mi
7:30 AM75 °FClear.1 mph36%30.12 "Hg10 mi
7:00 AM73 °FClear.No wind41%30.12 "Hg10 mi
6:30 AM75 °FClear.1 mph39%30.12 "Hg10 mi
6:00 AM72 °FClear.1 mph47%30.12 "Hg10 mi
5:30 AM79 °FClear.2 mph34%30.12 "Hg10 mi
5:00 AM79 °FClear.3 mph39%30.12 "Hg10 mi
4:30 AM79 °FClear.5 mph42%30.12 "Hg10 mi
4:00 AM79 °FPassing clouds.3 mph48%30.12 "HgN/A
3:30 AM81 °FPassing clouds.7 mph48%30.12 "HgN/A
3:00 AM81 °FClear.8 mph51%30.12 "Hg10 mi
Weather by CustomWeather, © 2015

See weather overviewHow to use our weather pages